This is the latest recevied weather packets stored in our database for station/object K9YK-13. If no packets are shown the sender has not sent any weather packets the latest 10 day(s).
| Time | Temp. | Humidity | Pressure | Rain* | Wind** | Luminosity | Snow |
|---|---|---|---|---|---|---|---|
| 1777506073 | 13.89° C | 54% | 0 hPa | 0 mm | - | - | - |
| 1777505773 | 14.44° C | 53% | 0 hPa | 0 mm | - | - | - |
| 1777505473 | 14.44° C | 51% | 0 hPa | 0 mm | - | - | - |
| 1777505173 | 15.56° C | 51% | 0 hPa | 0 mm | - | - | - |
| 1777504873 | 16.11° C | 48% | 0 hPa | 0 mm | - | - | - |
| 1777504573 | 15.56° C | 50% | 0 hPa | 0 mm | - | - | - |
| 1777504273 | 16.67° C | 48% | 0 hPa | 0 mm | - | - | - |
| 1777503973 | 15.56° C | 51% | 0 hPa | 0 mm | - | - | - |
| 1777503673 | 16.11° C | 53% | 0 hPa | 0 mm | - | - | - |
| 1777503373 | 15.56° C | 55% | 0 hPa | 0 mm | - | - | - |
| 1777503073 | 14.44° C | 56% | 0 hPa | 0 mm | - | - | - |
| 1777502773 | 15° C | 56% | 0 hPa | 0 mm | - | - | - |
| 1777502473 | 14.44° C | 59% | 0 hPa | 0 mm | - | - | - |
| 1777502173 | 14.44° C | 59% | 0 hPa | 0 mm | - | - | - |
| 1777501873 | 15° C | 59% | 0 hPa | 0 mm | - | - | - |
| 1777501573 | 15° C | 58% | 0 hPa | 0 mm | - | - | - |
| 1777501273 | 15.56° C | 56% | 0 hPa | 0 mm | - | - | - |
| 1777500973 | 15.56° C | 58% | 0 hPa | 0 mm | - | - | - |
| 1777500673 | 15.56° C | 56% | 0 hPa | 0 mm | - | - | - |
| 1777500373 | 15.56° C | 55% | 0 hPa | 0 mm | - | - | - |
| 1777500073 | 15.56° C | 59% | 0 hPa | 0 mm | - | - | - |
| 1777499773 | 15° C | 57% | 0 hPa | 0 mm | - | - | - |
| 1777499473 | 15° C | 56% | 0 hPa | 0 mm | - | - | - |
| 1777499173 | 15.56° C | 59% | 0 hPa | 0 mm | - | - | - |
| 1777498873 | 15.56° C | 58% | 0 hPa | 0 mm | - | - | - |
* Rain latest hour (hover to see other rain measurements)
** Current wind speed in m/s (hover to see current wind gust speed)